www.pogodaiklimat.ru

Погода и климат >> Архив погоды >> Мексика >> Merida


АРХИВ ПОГОДЫ в Merida

Время (UTC), дата Ветер
(напр.,м/с)
 
Видим.   Явления Облачность Т
(С)
Тd
(С)
f
(%)
Тe
(С)
Тes
(С)
Комфортность P
(гПа)
Po
(гПа)
Тmin
(С)
Tmax
(С)
R
(мм)
R24
(мм)
S
(см)
12 15.11 СВ 1 5000 м 8/0 2000 м
[Ac As]
+24.0 +23.1 95 +32 +32 очень
душно
1013.8 1012.6 +22.9 +32.4
15 15.11 В 2 10 км 8/6 600 м
[Sc diur, vesp As op]
+27.0 +24.9 88 +39 +40 очень
душно
1014.9 1013.6
18 15.11 ЮВ 2 10 км 8/6 600 м
[Cu hum Ac trans]
+31.6 +24.4 66 +44 +48 опасность
перегрева
1013.6 1012.3 +22.9 +31.9
21 15.11 СВ 1 10 км 9/6 300 м
[Cb calv Ac trans]
+29.4 +26.1 82 +44 +46 опасность
перегрева
1012.1 1010.9 0.2
00 16.11 СВ 4 5000 м 6/3 600 м
[Cu hum Ac trans]
+26.8 +25.0 90 +39 +39 очень
душно
1013.4 1012.2 +22.9 +31.9
03 16.11 СВ 2 5000 м 3/0 2000 м
[Ac trans]
+25.4 +24.7 96 +36 +36 очень
душно
1015.3 1014.1
06 16.11 В 1 5000 м 1/0 2000 м
[Ac trans]
+23.8 +22.9 95 +32 +32 очень
душно
1015.2 1014.0 +22.9 +31.9
09 16.11 З 1 5000 м 3/0 2000 м
[Ac trans]
+21.6 +21.6 100 +28 +28 очень
душно
1014.4 1013.2
12 16.11 ЮЗ 1 5000 м 5/0 2000 м
[Ac As]
+21.0 +20.5 97 +27 +27 душно 1015.7 1014.4 +20.8 +31.9
15 16.11 В 2 10 км 6/4 600 м
[Cu med, cong As op]
+27.2 +25.3 89 +39 +42 очень
душно
1016.8 1015.5
18 16.11 С 2 10 км 6/5 600 м
[Cu hum As op]
+29.2 +24.8 77 +42 +47 опасность
перегрева
1015.5 1014.2 1
21 16.11 С 3 10 км 5/5 600 м
[Cu med, cong]
+29.4 +25.2 78 +43 +45 опасность
перегрева
1013.9 1012.6
00 17.11 СВ 3 5000 м 1/0
[Ci fib]
+25.6 +19.8 70 +31 +31 очень
душно
1015.4 1014.1 +20.8 +30.9
03 17.11 В 2 5000 м ясно +24.0 +20.9 83 +30 +30 очень
душно
1017.0 1015.8
06 17.11 В 1 5000 м 1/1 600 м
[Cu hum]
+21.6 +20.2 92 +27 +27 душно 1017.0 1015.7 +20.8 +30.9
09 17.11 С 1 5000 м ясно +17.8 +17.8 100 +19 +19 по сезону 1016.0 1014.7
12 17.11 СЗ 1 5000 м 3/3 600 м
[Cu hum]
+16.3 +16.1 99 +17 +17 прохладно 1016.8 1015.5 +16.3
15 17.11 С 2 10 км 1/1 600 м
[Cu hum]
+26.5 +22.1 77 +34 +39 очень
душно
1017.7 1016.3
18 17.11 В 2 10 км 6/6 600 м
[Cu med, cong]
+29.0 +25.3 80 +42 +47 опасность
перегрева
1016.2 1014.9 +16.2 +29.1
21 17.11 СВ 4 10 км 8/8 600 м
[Cu med, cong]
+29.9 +22.8 66 +40 +40 очень
душно
1014.1 1012.8
00 18.11 С 3 5000 м ясно +25.4 +19.6 70 +31 +31 очень
душно
1014.8 1013.5 +16.2 +30.6
03 18.11 В 2 5000 м ясно +23.6 +19.9 80 +29 +29 душно 1016.4 1015.1
06 18.11 В 1 5000 м ясно +21.5 +19.5 88 +26 +26 душно 1015.7 1014.5 +16.2 +30.6
09 18.11 Ю 1 5000 м ясно +18.3 +18.3 100 +20 +20 по сезону 1014.6 1013.4
12 18.11 Ю 1 5000 м ясно +15.3 +15.3 100 +16 +16 прохладно 1014.8 1013.5 +15.3 +30.6
15 18.11 В 1 10 км ясно +25.4 +21.4 79 +32 +39 очень
душно
1016.1 1014.9
18 18.11 ЮВ 1 10 км 1/1 600 м
[Cu hum]
+29.7 +24.2 72 +41 +54 опасность
перегрева
1013.8 1012.5 +15.1 +30.1
21 18.11 ЮВ 1 10 км 1/1 600 м
[Cu hum]
+31.4 +25.1 69 +45 +51 опасность
перегрева
1011.4 1010.2
00 19.11 В 1 5000 м ясно +26.2 +22.1 78 +34 +34 очень
душно
1012.2 1010.8 +15.1 +32.1
03 19.11 В 3 5000 м ясно +24.3 +22.1 88 +32 +32 очень
душно
1014.4 1013.1
06 19.11 В 2 5000 м ясно +22.5 +21.1 92 +30 +30 очень
душно
1014.4 1013.1 +15.1 +32.1
09 19.11 В 1 5000 м ясно +20.2 +20.0 99 +25 +25 комфорт 1014.4 1013.1
12 19.11 С 1 5000 м 1/0
[Ci fib]
+17.5 +17.5 100 +19 +19 по сезону 1015.4 1014.1 +17.4 +32.1
15 19.11 В 2 10 км 1/1 600 м
[Cu med, cong]
+26.3 +24.3 89 +37 +42 очень
душно
1017.0 1015.7
18 19.11 СВ 1 10 км 5/5 600 м
[Cu hum]
+30.8 +24.9 71 +44 +51 опасность
перегрева
1015.5 1014.2 +17.2 +31.1
21 19.11 С 3 10 км 8/5 600 м
[Cu hum Ac trans Ci fib]
+28.2 +23.0 73 +38 +39 очень
душно
1013.8 1012.5
00 20.11 С 3 5000 м 1/0
[Ci fib]
+25.6 +20.4 73 +32 +32 очень
душно
1013.6 1012.3 +17.2 +31.1
06 20.11 З 1 5000 м ясно +18.8 +18.8 100 +21 +21 комфорт 1016.8 1015.5 +17.2 +31.1
12 20.11 штиль 0 5000 м ясно +15.3 +15.3 100 +15 +15 холодно 1016.1 1014.8 +15.3 +31.1
15 20.11 Ю 1 10 км ясно +25.4 +21.0 77 +32 +38 очень
душно
1017.3 1016.1
18 20.11 С 1 10 км 3/3 600 м
[Cu hum]
+29.7 +21.6 62 +38 +48 очень
душно
1016.0 1014.7 +15.1 +30.1
21 20.11 С 1 10 км 3/3 600 м
[Cu hum]
+31.6 +22.0 57 +26 +31 жарко 1013.3 1012.0
00 21.11 С 3 5000 м 3/3 600 м
[Cu hum]
+26.1 +22.1 79 +34 +34 очень
душно
1014.1 1012.8 +15.1 +32.1
03 21.11 В 1 5000 м ясно +23.3 +21.8 91 +32 +32 очень
душно
1015.5 1014.2
06 21.11 Ю 1 5000 м 3/3 600 м
[St]
+20.1 +20.1 100 +25 +25 комфорт 1014.6 1013.4 +15.1 +32.1
09 21.11 Ю 1 5000 м 3/0 2000 м
[Ac trans]
+19.4 +19.2 99 +23 +23 комфорт 1013.9 1012.7
12 21.11 Ю 1 5000 м дымка ясно +17.2 +17.2 100 +18 +18 по сезону 1013.7 1012.4 +17.2 +32.1
15 21.11 Ю 1 10 км {туман} ясно +25.5 +21.8 80 +33 +39 очень
душно
1014.8 1013.6
18 21.11 Ю 1 10 км 5/5 600 м
[Cu hum]
+29.6 +24.5 74 +42 +49 опасность
перегрева
1012.6 1011.4 +17.0 +30.4
21 21.11 С 2 10 км 5/5 600 м
[Cu hum]
+30.8 +22.4 61 +40 +43 очень
душно
1010.7 1009.5
00 22.11 5000 м н/о +26.6 +18.5 61 +31 +31 душно 1011.5 1010.3 +17.0 +32.4
03 22.11 СВ 1 5000 м ясно +24.6 +21.6 83 +31 +31 очень
душно
1012.6 1011.4
06 22.11 В 1 5000 м 3/0 2000 м
[Ac trans Ci fib]
+23.1 +21.3 90 +31 +31 очень
душно
1012.4 1011.1 +17.0 +32.4

 

Местоположение метеостанции Merida (Мексика): широта 20.98 долгота -89.65 высота над уровнем моря 9 м.

В архиве по умолчанию представлена погода в Merida за последнюю неделю. Архивные данные за месяц целиком и за предыдущие месяцы, начиная с января 2011 года, Вы можете получить, выбрав интересующий диапазон дат из раскрывающегося списка и нажав кнопку "Ввод!".

Внимание! Время в таблицах - всемирное. Для получения местного времени необходимо прибавить поправку, которая в Merida равна -6 ч.

Смотрите также архив погоды в соседних городах и на ближайших метеорологических станциях:

Погода в Merida 2 (Мексика) (6 км)
Погода в Progreso (Мексика) (36 км)
Погода в Valladolid (Мексика) (154 км)
Погода в Campeche (Мексика) (157 км)
Погода в Felipe Carrillo Puerto (Мексика) (231 км)
Погода в Chetumal (Мексика) (312 км)
Погода в Belize (Белиз) (409 км)
Погода в Flores (Гватемала) (452 км)
Погода в Villahermosa (Мексика) (479 км)
Погода в Cabo San Antonio (Куба) (497 км)

Пояснения к столбцам:

Ветер - указаны скорость ветра в м/с - средняя за 10 мин, порывы в срок и между сроками (в фигурных скобках) и направление, откуда дует ветер: С - северный, СВ - северо-восточный, В - восточный, ЮВ - юго-восточный, Ю - южный, ЮЗ - юго-западный, З - западный, СЗ - северо-западный.
Видимость - горизонтальная дальность видимости в метрах или километрах. При видимости от 1 до 10 км при отсутствии осадков обычно наблюдается дымка, при ухудшении видимости до 1 км и менее - туман. В сухую погоду видимость может ухудшаться дымом, пылью или мглою.
Явления - указаны атмосферные явления, наблюдавшиеся в срок или в последний час перед сроком; фигурными скобками обозначены явления, наблюдавшиеся между сроками (за 1-3 часа до срока); квадратными скобками обозначены град или гололедные отложения с указанием их диаметра в мм.
Облачность - указаны через наклонную черту общая и нижняя облачность в баллах и высота нижней границы облаков в метрах; квадратными скобками обозначены формы облаков: Ci - перистые, Cs - перисто-слоистые, Cc - перисто-кучевые, Ac - высококучевые, As - высокослоистые, Sc - слоисто-кучевые, Ns - слоисто-дождевые, Cu - кучевые, Cb - кучево-дождевые. Подробнее классификацию облаков см. в Атласе облаков (PDF).
T - Температура воздуха - температура, измеренная на высоте 2 м над землей.
Td - Температура точки росы - температура, при понижении до которой содержащийся в воздухе водяной пар достигнет насыщения.
f - Относительная влажность воздуха - влажноcть воздуха, измеренная на высоте 2 м над землей.
Te - Эффективная температура - температура, которую ощущает одетый по сезону человек в тени. Характеристика душности погоды. При расчете учитывается влияние влажности воздуха и скорости ветра на теплоощущения человека.
Tes - Эффективная температура на солнце - температура, которую ощущает человек, с поправкой на солнечный нагрев. Характеристика знойности погоды. Зависит от высоты солнца над горизонтом, облачности и скорости ветра. Ночью, в пасмурную погоду, а также при ветре 12 м/с и более поправка равна нулю.
P - Атмосферное давление - приведенное к уровню моря атмосферное давление.
Po - Атмосферное давление - измеренное на уровне метеостанции атмосферное давление.
Tmin - Минимальная температура - минимум температуры воздуха на высоте 2 м над землей.
Tmax - Максимальная температура - максимум температуры воздуха на высоте 2 м над землей.
R - Количество осадков - Количество выпавших осадков за период времени, мм. При наведении курсора мыши на число - период времени, за который выпало указанное количество осадков.
R24 - Количество осадков - Количество выпавших осадков за 24 часа, мм.
S - Снежный покров - Высота снежного покрова, см. При наведении курсора мыши на число - состояние снежного покрова и степень покрытия местности в баллах.